Location: Csatornar�sz
(46.0000°N, 18.9167°E)
Time: 17:11:57
(UTC+00:00)

Daily predictions for brighter satellites

Satellite Brightness Start Highest point End
(mag) Time Altitude Azimuth Time Altitude Azimuth Time Altitude Azimuth
CZ-2C R/B 3.1 19:08:07 10° N 19:13:32 70° WNW 19:18:47 10° SSW
Resurs 01 Rocket 1.6 19:10:02 10° SSE 19:14:26 86° ENE 19:18:52 10° NNW
SL-16 R/B 2.6 19:09:09 10° SSW 19:14:49 74° WNW 19:20:31 10° NNE
Cosmos-2242 3.9 19:13:55 10° N 19:17:54 34° ENE 19:21:52 10° SE
ERS-1 Rocket 4.1 19:17:29 10° ESE 19:21:47 29° ENE 19:26:07 10° N
USA 215 3.9 19:16:15 10° ENE 19:22:04 33° SE 19:27:50 10° S
GEOS 3 Rocket 4.0 19:19:14 10° NE 19:24:24 44° ESE 19:29:30 10° SSW
Cosmos 2278 Rocket 4.1 19:21:28 10° N 19:25:20 18° NE 19:29:11 10° E
ATLAS 5 CENTAUR R/B 1.6 19:24:00 10° SSW 19:27:58 51° ESE 19:32:22 10° NE
Cosmos 1844 Rocket 2.8 19:25:35 10° NNW 19:31:09 67° ENE 19:36:36 10° SE
USA 245 3.3 19:31:00 10° SSE 19:34:11 57° ENE 19:38:14 10° N
Meteor 2-10 Rocket 3.6 19:30:58 10° NNW 19:36:05 81° W 19:41:21 10° S
Cosmos 1758 Rocket 3.7 19:32:42 10° S 19:37:08 63° E 19:41:35 10° NNE
Cosmos 1400 Rocket 3.1 19:34:35 10° N 19:38:31 53° ENE 19:42:04 12° SSE
SPOT 5 3.8 19:34:42 10° SE 19:39:09 35° ENE 19:43:30 10° N
Spot 2 Rocket 3.5 19:36:52 10° SSE 19:41:56 78° ENE 19:47:04 10° NNW
Lacrosse 5 rocket 4.1 19:38:49 10° WNW 19:42:11 22° NNW 19:45:25 10° NE
BREEZE-M DEB (TANK) 4.0 19:37:49 10° SSW 19:42:51 24° SSE 19:45:10 10° E
ATLAS 5 CENTAUR R/B 4.5 19:42:32 10° WNW 19:44:24 14° NW 19:45:47 10° N
Cosmos 1745 Rocket 4.1 19:40:48 10° S 19:46:59 82° W 19:53:18 10° N
Landsat 7 3.8 19:42:59 10° SSE 19:47:44 80° ENE 19:52:31 10° NNW
USA 267 4.1 19:48:47 10° E 19:55:01 48° NNE 20:01:15 10° NW
SPOT 1/Viking Rocket 3.5 19:51:15 12° SSE 19:56:06 80° ENE 20:01:18 10° NNW
Cosmos 1953 Rocket 3.6 19:56:03 10° S 20:00:15 59° E 20:04:31 10° NNE
Alouette 2 Rocket 3.6 19:57:48 10° NNW 20:01:37 87° ENE 20:06:10 13° SSE
Cosmos 2322 Rocket 3.7 19:57:01 10° SW 20:02:16 40° NW 20:07:35 10° NNE
Cosmos 1328 3.9 20:02:40 10° SSW 20:06:38 77° W 20:10:38 10° N
Cosmos 2084 4.3 20:03:50 10° NNW 20:08:09 46° NE 20:11:33 15° ESE
SAR-Lupe-2 3.5 20:06:33 10° NNE 20:10:10 82° ESE 20:13:38 11° SSW
Cosmos 1455 3.7 20:09:07 10° NNW 20:12:37 34° W 20:16:07 10° SSW
Cosmos 1825 Rocket 4.0 20:11:36 10° SSW 20:15:59 63° W 20:20:26 10° N
ATLAS CENTAUR R/B 1.5 20:16:32 10° NNW 20:20:10 51° NE 20:22:16 22° ESE
Cosmos 1703 4.3 20:16:54 10° SSW 20:20:37 45° WNW 20:24:23 10° N
COSMOS 2428 2.8 20:16:20 10° S 20:21:52 58° ESE 20:27:27 10° NNE
Cosmos 1844 4.1 20:19:32 10° NNW 20:25:14 60° WSW 20:29:32 17° S
Cosmos 2322 3.8 20:20:05 10° SSW 20:25:49 82° WNW 20:31:35 10° NNE
Meteor 1-27 4.3 20:25:56 10° N 20:31:42 83° E 20:35:46 21° SSE
Cosmos 1869 4.0 20:28:14 10° N 20:32:02 41° ENE 20:33:50 26° SE
Cosmos 1709 Rocket 4.4 20:25:51 10° SSW 20:32:05 67° W 20:38:27 10° N
NOSS 3-3 (A) 3.8 20:28:44 10° SSW 20:34:30 72° SE 20:41:03 10° NE
NOSS 3-3 (C) 3.8 20:28:50 10° SSW 20:34:37 72° SE 20:41:10 10° NE
Terra 1.8 20:31:40 23° SSE 20:34:42 80° ENE 20:39:29 10° NNW
Cosmos 2237 Rocket 3.1 20:33:12 22° SE 20:35:38 30° ESE 20:40:32 10° NE
CARTOSAT-1 3.9 20:32:57 19° S 20:35:55 62° W 20:40:13 10° NNW
Atlas Centaur 2 3.9 20:33:06 10° SW 20:37:36 20° S 20:38:47 19° S
Cosmos 2333 4.5 20:32:01 10° SW 20:37:38 70° WNW 20:43:22 10° NNE
Cosmos 2219 Rocket 2.1 20:32:22 10° SSW 20:37:57 85° ESE 20:43:36 10° NNE
Cosmos 2360 Rocket 3.7 20:34:57 10° WSW 20:40:11 38° NW 20:45:28 10° NNE
Cosmos 1538 Rocket 4.0 20:35:20 10° SSW 20:40:42 86° ESE 20:46:04 10° NNE
DELTA 2 R/B (1) 4.3 20:41:07 10° SW 20:45:56 30° SSE 20:49:11 17° ESE
Cosmos 2184 Rocket 4.1 20:42:26 21° S 20:46:40 64° E 20:52:53 10° NNE
Cosmos 2333 Rocket 2.4 20:42:07 10° SSW 20:47:47 77° WNW 20:53:33 10° NNE
Meteor 2-2 Rocket 4.3 20:43:57 10° N 20:49:47 69° ENE 20:53:04 26° SSE
Thor Agena Rocket 4.5 20:46:34 10° NE 20:51:04 30° E 20:52:43 25° SE
Cosmos 1315 Rocket 3.1 20:48:02 10° NNW 20:52:05 63° W 20:54:13 27° S
ATLAS 2AS CENTAUR R/B 3.5 20:45:50 10° NW 20:53:17 51° NE 20:59:01 15° ESE
ERS-1 Rocket 4.0 20:56:51 16° SSW 21:00:26 39° W 21:05:10 10° NNW
Cosmos 2221 2.5 20:56:10 10° N 21:00:35 89° ENE 21:02:29 33° S
USA 215 3.3 20:58:54 10° NE 21:05:30 82° NW 21:12:02 10° WSW
Cosmos 1892 2.6 21:07:01 43° SSE 21:08:03 65° E 21:11:50 10° NNE
EO 1 Del DPAF 4.1 21:06:16 10° NNE 21:09:41 32° E 21:09:59 31° ESE
Cosmos 2112 Rocket 4.4 21:08:05 31° SSE 21:10:10 46° ESE 21:15:17 10° NNE
Cosmos 2278 Rocket 2.2 21:04:35 10° NNW 21:10:18 86° ENE 21:13:09 31° SSE
ATLAS 5 CENTAUR R/B 3.9 21:09:14 10° W 21:12:53 26° NW 21:16:57 10° NNE
Cosmos 158 Rocket 4.0 21:13:11 35° SSE 21:14:54 52° ESE 21:19:40 10° NNE
Aureole 2 Rocket 4.3 21:14:48 10° NNE 21:16:34 15° ENE 21:17:00 15° ENE
Gblst 52 Del rocket 4.3 21:11:05 10° WNW 21:16:52 75° SSW 21:20:34 27° SE
SPOT 5 4.3 21:13:56 16° SSW 21:17:13 31° W 21:21:32 10° NNW
Cosmos 1943 Rocket 4.3 21:13:57 10° N 21:18:00 19° NE 21:22:01 10° E
SL-16 R/B 3.3 21:18:55 24° ESE 21:19:59 25° ESE 21:24:34 10° NE
Spot 4 4.1 21:20:00 34° SE 21:21:54 59° ENE 21:26:36 10° N
Lacrosse 5 rocket 4.1 21:19:41 10° NW 21:22:33 18° N 21:25:18 10° NE
Cosmos 2056 Rocket 4.1 21:19:47 10° NNW 21:25:04 51° ENE 21:27:39 29° SE
Nadezhda 3 Rocket 4.0 21:19:31 10° N 21:25:56 84° E 21:29:11 31° SSE
Cosmos 2154 Rocket 3.9 21:23:04 28° S 21:26:30 82° E 21:32:44 10° N
Cosmos 2058 2.9 21:25:00 37° SSW 21:26:33 78° W 21:30:43 10° N
Cosmos 1408 2.4 21:29:06 61° SSE 21:29:33 72° E 21:33:07 10° NNE
Cosmos 2341 Rocket 4.4 21:26:53 31° SSE 21:29:34 49° E 21:35:32 10° NNE
In-Cosmos 22 Rocket 4.2 21:29:55 26° SSW 21:32:59 70° WNW 21:38:19 10° N
Cosmos 2074 Rocket 4.5 21:29:16 18° SSW 21:33:56 57° WNW 21:40:04 10° N
TSX-5 4.0 21:33:21 10° NW 21:36:51 55° WSW 21:37:36 46° SSW
Cosmos 1076 Rocket 3.7 21:36:08 36° SSW 21:37:46 68° W 21:42:03 10° N
USA 267 3.2 21:34:05 28° SE 21:37:49 75° SW 21:44:25 10° NW
Cosmos 1680 Rocket 3.5 21:35:42 29° SSW 21:38:29 88° WNW 21:43:51 10° NNE
CZ-4C R/B 4.5 21:40:40 10° NNW 21:46:32 29° NNE 21:53:11 10° E
Cosmos 2151 3.0 21:47:18 52° SSE 21:48:11 68° E 21:52:26 10° NNE
SL-8 Rocket 4.3 21:46:21 33° SSE 21:48:46 52° E 21:54:43 10° NNE
EO 1 Delta rocket 4.2 21:44:52 10° N 21:49:58 90° ESE 21:52:50 33° S
COSMOS 2455 4.1 21:44:53 10° NNW 21:50:23 35° NE 21:55:18 12° ESE
ATLAS CENTAUR R/B 3.3 21:56:33 10° WNW 21:58:26 14° WSW 21:58:26 14° WSW
Cosmos 1825 2.1 21:58:09 62° SW 21:58:41 77° W 22:02:29 10° N
ALOS 2 2.7 21:58:03 48° SE 21:59:08 69° ENE 22:03:31 10° N
Cosmos 1408 Rocket 4.4 21:58:51 33° ESE 21:59:26 34° E 22:03:26 10° NNE
Cosmos 1340 3.7 21:59:38 32° E 21:59:38 32° E 22:02:57 10° NNE
Cosmos 1980 4.2 21:56:55 18° SW 22:01:06 59° WNW 22:06:42 10° NNE
Cosmos 1933 3.8 21:57:52 10° N 22:01:46 46° ENE 22:02:24 42° ESE
Cosmos 1151 Rocket 3.4 21:58:04 10° N 22:02:19 53° ENE 22:03:13 44° ESE
Cosmos 2369 Rocket 3.9 21:57:54 10° N 22:02:36 27° NE 22:07:04 11° ESE
APEX 4.5 22:02:53 10° N 22:05:03 21° NE 22:05:07 21° ENE
Cosmos 44 3.0 22:05:15 55° SE 22:05:35 57° ESE 22:09:56 10° NE
Cosmos 371 Rocket 3.7 22:05:21 10° NNW 22:10:09 56° ENE 22:11:47 37° ESE
GP-B 3.1 22:06:03 10° N 22:10:31 74° E 22:11:23 55° SSE
Terra 4.2 22:11:01 10° WSW 22:13:02 12° W 22:15:04 10° WNW
Cosmos 1624 Rocket 4.1 22:10:21 10° NNW 22:15:31 62° WSW 22:16:57 44° SSW
NOSS 3-4 (A) 4.0 22:09:32 10° NW 22:16:27 61° WSW 22:19:47 35° S
NOSS 3-4 (C) 4.0 22:09:38 10° NW 22:16:35 62° WSW 22:19:55 35° S
SL-4 R/B 3.7 22:19:54 16° N 22:19:54 16° N 22:20:28 10° N
Helios 1B rocket 4.4 22:16:08 10° NE 22:18:51 17° E 22:19:04 17° E
Cosmos 2237 Rocket 3.1 22:14:58 15° SW 22:19:29 46° WNW 22:24:59 10° NNE
Nimbus 7 Rocket 4.4 22:13:50 10° NNE 22:19:48 85° WNW 22:22:22 36° SSW
Genesis I 4.1 22:18:36 26° WSW 22:20:24 45° NW 22:24:11 10° NNE
IRIDIUM 106 4.3 22:19:31 46° S 22:21:06 81° E 22:26:21 10° N
CREW DRAGON DEMO-1 DEB 3.7 22:22:53 45° NE 22:22:53 45° NE 22:25:14 10° ENE
Cosmos 2344 3.6 22:16:02 15° SW 22:22:22 82° NW 22:30:33 10° NE
Cosmos 1782 3.9 22:19:17 10° N 22:22:54 33° ENE 22:23:34 31° E
Cosmos 1346 Rocket 3.3 22:28:04 42° E 22:28:10 43° E 22:31:55 10° NNE
DELTA 2 R/B (1) 4.3 22:26:28 10° WSW 22:36:22 13° ESE 22:37:03 10° ESE
RESURS DK-1 4.3 22:37:24 10° N 22:40:52 25° NE 22:43:23 15° E
Cosmos 1515 Rocket 3.5 22:38:09 10° N 22:42:31 80° E 22:43:15 60° SSE
BREEZE-M DEB (TANK) 3.5 22:40:11 10° WNW 22:41:22 20° WNW 22:41:22 20° WNW
CZ-4 R/B 4.5 22:39:18 10° NNE 22:43:44 40° E 22:44:35 36° SE
ATLAS 2AS CENTAUR R/B 3.3 22:37:13 10° NW 22:44:12 44° WSW 22:46:25 35° SSW
Cosmos 1766 Rocket 4.2 22:44:24 37° WSW 22:45:30 46° WNW 22:49:46 10° N
Gbstr 26 Del rocket 2.8 22:49:28 60° ESE 22:49:28 60° ESE 22:53:14 10° ENE
Cosmos 1328 Rocket 3.9 22:45:40 10° NNW 22:49:50 50° W 22:50:25 46° WSW
Aureole 2 Rocket 4.2 22:47:45 10° NW 22:48:59 19° WNW 22:48:59 19° WNW
Cosmos 1606 3.8 22:48:36 10° NNW 22:52:07 33° W 22:52:19 33° W
Cosmos 2278 Rocket 4.1 22:50:29 10° WNW 22:53:34 15° W 22:54:59 14° WSW
Cosmos 2218 Rocket 4.2 22:50:54 34° SSW 22:53:43 64° WNW 23:00:00 10° N
Cosmos 2297 4.1 22:50:13 10° NW 22:55:44 50° WSW 22:57:12 40° SSW
Cosmos 304 Rocket 3.8 22:51:46 10° NNW 22:56:37 73° ENE 22:58:04 44° SE
Cosmos 1943 4.1 22:56:06 31° SE 22:57:28 35° ESE 23:02:34 10° NE
Cosmos 2228 Rocket 3.3 22:53:39 10° N 22:58:13 65° E 22:59:19 48° SE
Cosmos 1862 4.4 22:58:33 32° ESE 22:58:57 33° E 23:02:32 10° NNE
Cosmos 2366 rocket 4.3 22:56:35 33° SW 22:59:25 61° WNW 23:05:43 10° N
Cosmos 1420 Rocket 4.4 22:54:21 10° NNW 22:59:26 49° WSW 23:00:36 42° SW
Cosmos 1633 2.4 23:01:11 81° W 23:01:12 81° W 23:04:50 10° N
Cosmos 1943 Rocket 2.1 22:56:50 10° NNW 23:02:33 88° WSW 23:04:40 41° SSE
Lacrosse 5 rocket 2.6 22:58:56 10° NW 23:02:39 36° NNE 23:06:11 10° E
Landsat 4 3.5 22:59:55 10° NNE 23:03:43 85° WNW 23:03:59 77° SW
SL-16 R/B 2.7 23:00:47 27° SW 23:03:44 54° WNW 23:09:20 10° NNE
Cosmos 1821 Rocket 4.0 23:05:52 39° SSE 23:08:14 69° E 23:14:18 10° NNE
YAOGAN 11 4.2 23:09:09 52° SW 23:09:46 58° W 23:14:07 10° NNW
BREEZE-M DEB (TANK) 4.2 23:01:35 10° SW 23:12:55 50° SSE 23:16:52 10° E
Cosmos 1743 Rocket 3.5 23:12:36 59° SW 23:13:20 76° W 23:17:42 10° N
Sich 1 3.9 23:15:28 34° ESE 23:16:21 38° E 23:20:22 10° NNE
Cosmos 332 Rocket 4.2 23:16:13 10° NNW 23:20:47 46° WSW 23:21:28 43° SW
Cosmos 1331 Rocket 4.2 23:15:51 10° NNW 23:21:10 67° ENE 23:23:39 31° SE
Cosmos 1048 Rocket 4.0 23:19:32 44° SSW 23:21:18 82° WNW 23:26:36 10° NNE
USA 267 4.5 23:21:24 21° SW 23:21:31 21° WSW 23:26:22 10° WNW
Meteor 2-3 Rocket 4.4 23:21:02 29° SW 23:23:25 45° WNW 23:28:53 10° N
Helios 1A 4.0 23:24:53 31° WSW 23:25:07 31° W 23:28:50 10° NNW
Meteor 1-29 3.2 23:25:53 10° NNE 23:29:10 55° E 23:29:10 55° E
Cosmos 405 3.8 23:26:04 10° NNW 23:29:08 38° W 23:29:08 38° W
SL-4 R/B 3.9 23:32:31 12° E 23:32:31 12° E 23:33:06 10° ENE
Meteor 1-10 Rocket 4.1 23:28:00 10° N 23:33:37 88° E 23:35:50 38° SSE
Cosmos 1452 Rocket 4.2 23:29:20 10° NW 23:34:08 37° WSW 23:35:06 34° SW
PSLV R/B 3.7 23:31:27 10° N 23:35:38 63° WNW 23:36:34 48° SW
Meteor 2-6 Rocket 4.1 23:30:33 10° NNW 23:36:02 75° W 23:37:53 42° S
CZ-4C R/B 3.0 23:28:53 10° NW 23:36:06 81° NE 23:44:25 10° SE
Cosmos 389 Rocket 3.7 23:32:58 10° N 23:36:15 35° ENE 23:37:04 30° ESE
COSMOS 2455 3.1 23:30:44 10° NW 23:36:34 52° WSW 23:38:24 39° SSW
SL-16 R/B 3.5 23:31:34 13° SE 23:36:51 43° ENE 23:42:43 10° N
Cosmos 1110 Rocket 3.9 23:32:59 10° NNW 23:38:17 81° WSW 23:40:16 40° SSE
Cosmos 1603 3.6 23:36:25 40° SSW 23:38:34 87° ESE 23:44:19 10° NNE
Cosmos 1269 Rocket 4.2 23:39:59 40° SSE 23:41:43 60° ESE 23:46:56 10° NNE
Cosmos 1666 Rocket 4.0 23:44:14 39° SE 23:45:30 54° E 23:49:47 10° NNE
Resurs 1-4 Rocket 3.2 23:41:25 10° NNE 23:46:15 34° E 23:48:45 23° SE
Cosmos 2369 Rocket 2.3 23:41:30 10° NNW 23:46:59 58° WSW 23:48:49 39° SSW
SeaSat 1 3.0 23:45:00 10° NE 23:49:46 47° ESE 23:51:20 35° SSE
ISS -2.9 23:51:00 40° ESE 23:51:00 40° ESE 23:53:33 10° ENE
Helios 1B rocket 3.0 23:50:24 10° N 23:54:21 46° WNW 23:55:23 37° WSW
